Вернуться в каталог

STARLINK-3320

АктивенСвязьVLEO
NORAD 50839·PAYLOAD·🇺🇸 United States

Запущен Jan 6, 2022 с Cape Canaveral Space Force Station

Loading…

Ближайшие Пролёты (ближайшие 24 часа)

TLE

СвежийSource: CelesTrak SupGP

Эпоха: Sep 15, 2026, 00:59 UTC

1 50839C 22001AN  26258.04145833 -.00035469  00000+0 -11407-2 0  2582
2 50839  53.1589  35.1740 0001016  86.2455 137.3060 15.31716236    12

Отслеживайте STARLINK-3320 в реальном времени с AllMySat

Download on the App Store